Regional Weather Roundup
Issued by NWS

Home | Current Version | Previous Version | Text Only | Print | Product List | Glossary On
Versions: 1 2 3 4 5 6 7 8 9 10 11 12 13 14 15 16 17 18 19 20 21 22 23 24 25 26 27 28 29 30 31 32 33 34 35 36 37 38 39 40 41 42 43 44 45 46 47 48 49 50
234
ASUS45 KBOI 201910
RWRID

IDAHO REGIONAL WEATHER ROUNDUP
NATIONAL WEATHER SERVICE BOISE ID
1200 PM MST FRI JAN 20 2017

NOTE: "FAIR" INDICATES FEW OR NO CLOUDS BELOW 12000 FEET
WITH NO SIGNIFICANT WEATHER AND/OR OBSTRUCTIONS TO VISIBILITY

IDZ012-014-202000-
SOUTHWEST IDAHO


CITY           SKY/WX    TMP DP  RH WIND       PRES   REMARKS
BOISE          CLOUDY    40  27  59 SE16      29.34F WCI  31
CALDWELL       CLOUDY    37  30  75 SE17      29.36F WCI  27
MOUNTAIN HOME  PTSUNNY   35  33  89 E23G30    29.39S WCI  24
$$

IDZ016-017-202000-
SOUTHCENTRAL IDAHO


CITY           SKY/WX    TMP DP  RH WIND       PRES   REMARKS
BURLEY         MOSUNNY   34  25  69 S9        29.44F WCI  27
JEROME         PTSUNNY   32  24  72 NE14      29.43F WCI  22
TWIN FALLS     PTSUNNY   37  23  56 S5        29.41F WCI  33
$$

IDZ019>023-202000-
SOUTHEAST IDAHO


CITY           SKY/WX    TMP DP  RH WIND       PRES   REMARKS
IDAHO FALLS    MOSUNNY   27  25  92 NW7       29.50F WCI  19
POCATELLO      MOSUNNY   35  23  61 NW3       29.49F
REXBURG        CLOUDY    31  28  89 E3        29.50F
$$

IDZ006-010-011-018-031-032-202000-
CENTRAL IDAHO MOUNTAINS


CITY           SKY/WX    TMP DP  RH WIND       PRES   REMARKS
MCCALL         CLOUDY    30  23  75 SE8       29.31F WCI  22
HAILEY         CLOUDY    28  25  86 CALM      29.47F
STANLEY          N/A     27  18  69 SE10G20   29.36F WCI  17
SALMON         CLOUDY    27  21  80 CALM      29.45F
CHALLIS        FOG       16  16 100 CALM      29.44F VSB<1/4
$$

IDZ002-004-006-007-026-202000-
NORTHERN IDAHO


CITY           SKY/WX    TMP DP  RH WIND       PRES   REMARKS
LEWISTON       MOSUNNY   40  31  70 E9        29.32F WCI  34
LOWELL           N/A     40  34  79 CALM      29.40F
COEUR D`ALENE  SUNNY     38  33  82 N12       29.34F WCI  30
MULLAN PASS    PTSUNNY   30  24  78 SE7       29.29F HAZE    WCI  23
$$




USA.gov is the U.S. government's official web portal to all federal, state and local government web resources and services.